THAICOM 6 (39500 NORAD) Tracking and Keplerian Element Data

This shows tracking and keplerian element data for the satellite.

Feedback or suggestion? Click here.




ElementValue
Catalog39500
NameTHAICOM 6
Epoch Orbit4046
Epoch Day34.70253292
Epoch Year2025
RAAN106.2698
Inclination0.0755
Eccentricity0.000109
Argument of Perigee243.94
Mean Anonmoly115.3246
Mean Motion1.00272107
Decay Rate-1.17E-06
L11 39500U 14002A 25034.70253292 -.00000117 00000+0 00000+0 0 9996
L22 39500 0.0755 106.2698 0001090 243.9400 115.3246 1.00272107 40466



Live tracking and technical data element details for THAICOM 6 (NORAD 39500). THAICOM 6 can be tracked NOW for your location showing map with azimuth and elevation plus other details from your city location.







IsCatalogInMostPopularTable: catalog: 39500, numindb: 362
Update: records affected: 1



GetName: 39500 THAICOM 6

Hit Count: updated at: Thu, 22 May 2025 04:43:48 GMT